Location: Penzberg
(47.7615°N, 11.3159°E)
Time: 17:57:03
(UTC+02:00)

ISS - Pass Details

Date: 08 January 2018
Orbit: 401 x 409 km, 51.6° (Epoch: 19 August)

Event Time Altitude Azimuth Distance (km) Brightness Sun altitude
Exits shadow 05:21:50 23° 58° (ENE) 955 -1.5 -26.1°
Drops below altitude 10° 05:23:23 10° 72° (ENE) 1,513 -0.1 -25.8°
Enters shadow 06:18:40 -71° 278° (W) 12,476 3.7 -16.7°
Maximum altitude 06:57:09 71° 20° (NNE) 453 -3.6 -10.6°
